Location: Clermont
(50.2608°N, 4.3172°E)
Time: 04:25:15
(UTC+00:00)

Cosmos 2322 - Pass Details

Date: 13 August 2020
Orbit: 842 x 853 km, 71.0° (Epoch: 19 September)

Event Time Altitude Azimuth Distance (km) Brightness Sun altitude
Rises 22:13:59 0° 330° (NNW) 3,414 8.3 -22.3°
Reaches altitude 10° 22:16:26 10° 329° (NNW) 2,474 7.3 -22.4°
Maximum altitude 22:22:08 83° 243° (WSW) 856 3.6 -22.8°
Enters shadow 22:23:31 53° 164° (SSE) 1,027 3.7 -22.9°
